Other Surface Observations
Issued by NWS Upton, NY

Current Version | Previous Version | Text Only | Print | Product List | Glossary Off
Versions: 1 2 3 4 5 6 7 8 9 10 11 12 13 14 15 16 17 18 19 20 21 22 23 24 25 26 27 28 29 30 31 32 33 34 35 36 37 38 39 40 41 42 43 44 45 46 47 48 49 50
000 SXUS51 KOKX 241257 OSOOKX NEW YORK CITY METROPOLITAN AREA WEATHER ROUNDUP National Weather Service New York NY 900 AM EDT MON JUL 24 2017 CITY SKY/WX TMP DP RH WIND PRES REMARKS Central Park LGT RAIN 68 67 96 VRB7 29.78F FOG LaGuardia APRT LGT RAIN 70 68 93 NE10 29.77R Kennedy INTL DRIZZLE 73 71 93 E15 29.76S Newark Liberty LGT RAIN 71 68 90 NE9 29.75S Teterboro APRT LGT RAIN 68 66 93 E7 29.75S FOG Bronx Bot Gard N/A 64 63 94 S3 29.78F >>>>>>>>>>>>>>>>>>>>>>>>>>>>>>>>> KEY <<<<<<<<<<<<<<<<<<<<<<<<<<<<<<< > SKY/WX - SKY CONDITION/PRESENT : R : WCI - WIND CHILL INDEX < > WEATHER : E : VSB - VISIBILITY IN MILES < > TMP - TEMPERATURE IN DEG F : M : HX - HEAT INDEX < > DP - DEW POINT TEMPERATURE : A : TC - TEMPERATURE IN < > RH - RELATIVE HUMIDITY : R : CELSIUS < > WIND - DIRECTION/SPEED (MPH) : K : VRB - VARIABLE WIND DIR < > PRES - PRESSURE (IN HG) : S : < >>>>>>>>>>>>>>>>>>>>>>>>>>>>>>>>> KEY <<<<<<<<<<<<<<<<<<<<<<<<<<<<<<<

USA.gov is the U.S. government's official web portal to all federal, state and local government web resources and services.